DIRECTV 9S

Last updated on Fri Apr 25 2025 00:02:38 GMT+0000 (Coordinated Universal Time)

1 29494U 06043A 25113.86831581 -.00000110 00000+0 00000+0 0 9994 2 29494 1.3357 85.9976 0002990 309.5934 27.9642 1.00272478 47176
UTC large
Height (km)
Speed (km/s)
/
Latitude / Longitude
Inclination (degrees)
Orbital Period (minutes)
Azimuth
Elevation
Range (km)
Doppler Factor

Next 0 passes for location: London (51.5072 / 0.1276)

Sorry there are no passes over London.